AFL162 LYBE-UUEE

Flight info

Callsign AFL162
Flight time N/A
Altitude 33000
Route INGOP DCT ELROM DCT ROMOL/K0863F350 P129 KUROS N180 BERUN T296 BUKUB
Aircraft T154/M-SDGRWY/S

Departure

Time 2026-04-30 08:40
Airport Belgrade Nikola Tesla Airport (LYBE)

Arrival

Time N/A
Airport Sheremetyevo International Airport (UUEE)
Time Latitude Longitude Altitude Speed Heading
2026-04-30 07:53 44.81889 20.29250 345 ft 0 kts 302°
2026-04-30 08:27 44.81888 20.29252 345 ft 1 kts 302°
2026-04-30 08:27 44.81880 20.29270 345 ft 2 kts 302°
2026-04-30 08:27 44.81872 20.29288 345 ft 2 kts 302°
2026-04-30 08:28 44.81862 20.29303 345 ft 2 kts 338°
2026-04-30 08:28 44.81847 20.29306 345 ft 2 kts 12°
2026-04-30 08:28 44.81834 20.29297 345 ft 2 kts 36°
2026-04-30 08:28 44.81824 20.29287 345 ft 0 kts 27°
2026-04-30 08:29 44.81823 20.29286 345 ft 0 kts 28°
2026-04-30 08:31 44.81824 20.29287 345 ft 0 kts 28°
2026-04-30 08:32 44.81835 20.29297 345 ft 3 kts 32°
2026-04-30 08:32 44.81863 20.29323 345 ft 6 kts 32°
2026-04-30 08:32 44.81908 20.29363 345 ft 9 kts 32°
2026-04-30 08:32 44.81971 20.29418 345 ft 11 kts 31°
2026-04-30 08:33 44.82040 20.29477 345 ft 11 kts 31°
2026-04-30 08:33 44.82104 20.29533 345 ft 8 kts 41°
2026-04-30 08:33 44.82106 20.29604 345 ft 4 kts 118°
2026-04-30 08:33 44.82092 20.29638 345 ft 4 kts 121°
2026-04-30 08:34 44.82069 20.29692 345 ft 8 kts 121°
2026-04-30 08:34 44.82033 20.29773 345 ft 11 kts 122°
2026-04-30 08:34 44.81986 20.29879 345 ft 14 kts 122°
2026-04-30 08:34 44.81929 20.30008 345 ft 17 kts 121°
2026-04-30 08:35 44.81859 20.30169 345 ft 20 kts 121°
2026-04-30 08:35 44.81781 20.30345 345 ft 21 kts 121°
2026-04-30 08:35 44.81702 20.30521 345 ft 21 kts 122°
2026-04-30 08:35 44.81627 20.30693 345 ft 20 kts 121°
2026-04-30 08:36 44.81551 20.30866 345 ft 20 kts 122°
2026-04-30 08:36 44.81475 20.31035 345 ft 20 kts 122°
2026-04-30 08:36 44.81400 20.31204 345 ft 20 kts 121°
2026-04-30 08:36 44.81326 20.31372 345 ft 20 kts 122°
2026-04-30 08:37 44.81252 20.31540 345 ft 19 kts 121°
2026-04-30 08:37 44.81179 20.31705 345 ft 19 kts 122°
2026-04-30 08:37 44.81106 20.31869 345 ft 19 kts 121°
2026-04-30 08:37 44.81034 20.32031 345 ft 19 kts 121°
2026-04-30 08:38 44.80989 20.32199 345 ft 18 kts 76°
2026-04-30 08:38 44.81081 20.32306 345 ft 17 kts 12°
2026-04-30 08:38 44.81201 20.32298 345 ft 16 kts 351°
2026-04-30 08:38 44.81255 20.32257 345 ft 2 kts 301°
2026-04-30 08:39 44.81256 20.32254 345 ft 0 kts 301°
2026-04-30 08:39 44.81257 20.32252 345 ft 0 kts 301°
2026-04-30 08:39 44.81270 20.32223 345 ft 11 kts 301°
2026-04-30 08:39 44.81441 20.31835 346 ft 89 kts 302°
2026-04-30 08:40 44.81916 20.30753 465 ft 154 kts 303°
2026-04-30 08:40 44.82487 20.29469 1174 ft 164 kts 304°
2026-04-30 08:40 44.82786 20.27952 2010 ft 170 kts 266°
2026-04-30 08:40 44.82199 20.26467 2584 ft 193 kts 222°
2026-04-30 08:41 44.80899 20.25572 3165 ft 224 kts 200°
2026-04-30 08:41 44.79327 20.24611 3800 ft 262 kts 205°
2026-04-30 08:41 44.77715 20.23476 5172 ft 266 kts 207°
2026-04-30 08:41 44.76114 20.22318 6672 ft 263 kts 207°
2026-04-30 08:42 44.74498 20.21153 7965 ft 267 kts 205°
2026-04-30 08:42 44.72706 20.20504 8894 ft 284 kts 180°
2026-04-30 08:42 44.70741 20.20967 9851 ft 298 kts 160°
2026-04-30 08:42 44.68883 20.22312 10677 ft 305 kts 145°
2026-04-30 08:43 44.67364 20.24368 11503 ft 312 kts 127°
2026-04-30 08:43 44.66349 20.27078 12304 ft 321 kts 109°
2026-04-30 08:43 44.65947 20.30226 12934 ft 335 kts 91°
2026-04-30 08:43 44.66237 20.33580 13403 ft 351 kts 72°
2026-04-30 08:44 44.67123 20.36500 13875 ft 360 kts 55°
2026-04-30 08:44 44.68767 20.39333 14469 ft 365 kts 37°
2026-04-30 08:44 44.70812 20.41511 15034 ft 373 kts 30°
2026-04-30 08:44 44.72954 20.43648 15535 ft 386 kts 30°
2026-04-30 08:45 44.75155 20.45858 16189 ft 393 kts 30°
2026-04-30 08:45 44.77349 20.48066 17092 ft 392 kts 30°
2026-04-30 08:45 44.79551 20.50277 17711 ft 399 kts 30°
2026-04-30 08:45 44.81511 20.52244 18338 ft 403 kts 29°
2026-04-30 08:46 44.83979 20.54720 19076 ft 407 kts 29°
2026-04-30 08:46 44.86304 20.57055 19692 ft 413 kts 29°
2026-04-30 08:46 44.88643 20.59406 20336 ft 418 kts 29°
2026-04-30 08:46 44.91030 20.61809 20972 ft 423 kts 29°
2026-04-30 08:47 44.93439 20.64236 21606 ft 426 kts 29°
2026-04-30 08:47 44.95822 20.66644 22127 ft 433 kts 30°
2026-04-30 08:47 44.98249 20.69113 22696 ft 437 kts 30°
2026-04-30 08:47 45.00300 20.71198 23171 ft 441 kts 30°
2026-04-30 08:48 45.02988 20.73927 23771 ft 445 kts 30°
2026-04-30 08:48 45.05523 20.76499 24290 ft 450 kts 29°
2026-04-30 08:48 45.08075 20.79087 24819 ft 454 kts 29°
2026-04-30 08:48 45.10602 20.81652 25334 ft 458 kts 29°
2026-04-30 08:49 45.13118 20.84196 25871 ft 460 kts 28°
2026-04-30 08:49 45.15452 20.86559 26333 ft 463 kts 28°
2026-04-30 08:49 45.18194 20.89348 27099 ft 461 kts 28°
2026-04-30 08:49 45.20798 20.92000 27678 ft 462 kts 28°
2026-04-30 08:50 45.23353 20.94609 28317 ft 461 kts 28°
2026-04-30 08:50 45.25838 20.97150 28902 ft 461 kts 27°
2026-04-30 08:50 45.28469 20.99842 29511 ft 461 kts 27°
2026-04-30 08:50 45.31065 21.02501 30104 ft 461 kts 27°
2026-04-30 08:51 45.33642 21.05145 30738 ft 458 kts 27°
2026-04-30 08:51 45.36203 21.07788 31451 ft 455 kts 29°
2026-04-30 08:51 45.38528 21.10833 32162 ft 461 kts 40°
2026-04-30 08:51 45.40622 21.14175 32617 ft 464 kts 42°
2026-04-30 08:52 45.42757 21.17668 33074 ft 466 kts 41°
2026-04-30 08:52 45.44922 21.21156 33398 ft 471 kts 41°
2026-04-30 08:52 45.47091 21.24592 33316 ft 485 kts 41°
2026-04-30 08:53 45.51557 21.31615 33336 ft 506 kts 41°
2026-04-30 08:53 45.56364 21.39182 33335 ft 522 kts 41°
2026-04-30 08:54 45.60966 21.46448 33333 ft 532 kts 41°
2026-04-30 08:54 45.66011 21.54434 33333 ft 538 kts 41°
2026-04-30 08:54 45.68480 21.58361 33309 ft 520 kts 41°
2026-04-30 08:55 45.70895 21.62204 33322 ft 511 kts 41°
2026-04-30 08:55 45.75597 21.69685 33333 ft 517 kts 42°
2026-04-30 08:56 45.80344 21.77283 33320 ft 516 kts 42°
2026-04-30 08:56 45.85125 21.84935 33323 ft 517 kts 42°
2026-04-30 08:57 45.89919 21.92625 33322 ft 517 kts 42°
2026-04-30 08:57 45.94716 22.00341 33323 ft 516 kts 42°
2026-04-30 08:58 45.99524 22.08097 33323 ft 516 kts 42°
2026-04-30 08:58 46.04304 22.15828 33323 ft 516 kts 42°
2026-04-30 08:59 46.09063 22.23549 33321 ft 515 kts 42°
2026-04-30 08:59 46.13425 22.30616 33345 ft 515 kts 42°
2026-04-30 09:00 46.18372 22.38656 33347 ft 513 kts 42°
2026-04-30 09:00 46.22798 22.45887 33357 ft 513 kts 42°
2026-04-30 09:01 46.27663 22.53866 33357 ft 512 kts 42°
2026-04-30 09:01 46.32353 22.61579 33358 ft 512 kts 42°
2026-04-30 09:02 46.39397 22.73237 33361 ft 512 kts 43°
2026-04-30 09:02 46.44136 22.81104 33355 ft 510 kts 43°
2026-04-30 09:03 46.48769 22.88802 33347 ft 510 kts 43°
2026-04-30 09:03 46.53412 22.96539 33336 ft 509 kts 43°
2026-04-30 09:04 46.57968 23.04151 33328 ft 508 kts 43°
2026-04-30 09:04 46.62618 23.11940 33328 ft 509 kts 43°
2026-04-30 09:05 46.67155 23.19563 33327 ft 508 kts 43°
2026-04-30 09:05 46.71437 23.26777 33324 ft 508 kts 44°
2026-04-30 09:06 46.76305 23.35000 33326 ft 508 kts 44°
2026-04-30 09:06 46.80926 23.42831 33327 ft 507 kts 44°
2026-04-30 09:07 46.85502 23.50608 33326 ft 506 kts 44°
2026-04-30 09:07 46.90071 23.58395 33323 ft 506 kts 44°
2026-04-30 09:08 46.94613 23.66158 33317 ft 504 kts 44°
2026-04-30 09:08 46.99177 23.74014 33335 ft 505 kts 45°
2026-04-30 09:09 47.03682 23.81772 33331 ft 502 kts 45°
2026-04-30 09:09 47.08209 23.89578 33345 ft 500 kts 45°
2026-04-30 09:10 47.11619 23.95462 33334 ft 499 kts 45°
2026-04-30 09:10 47.13875 23.99340 33364 ft 498 kts 45°
2026-04-30 09:11 47.18397 24.07157 33359 ft 499 kts 45°